Regional Weather Roundup
Issued by NWS Portland, ME

Home | Current Version | Previous Version | Text Only | Print | Product List | Glossary On
Versions: 1 2 3 4 5 6 7 8 9 10 11 12 13 14 15 16 17 18 19 20 21 22 23 24 25 26 27 28 29 30 31 32 33 34 35 36 37 38 39 40 41 42 43 44 45 46 47 48 49 50
000
ASUS41 KGYX 210910
RWRGYX
WEATHER ROUNDUP FOR MAINE AND NEW HAMPSHIRE
NATIONAL WEATHER SERVICE GRAY ME
500 AM EDT TUE APR 21 2015

MEZ002-005-006-010-012-015-018-020-021-024-026-027-029-211000-
MAINE

CITY           SKY/WX    TMP DP  RH WIND       PRES   REMARKS
PORTLAND       RAIN      48  46  93 NE5       29.70F FOG
SANFORD        CLOUDY    46  43  87 NE7       29.66F
BAR HARBOR     CLOUDY    43  43 100 E17G30    29.86F
WISCASSET      LGT RAIN  46  44  93 E12G24    29.73F FOG
ROCKLAND       CLOUDY    43  41  93 E25G37    29.76F
FRYEBURG       LGT RAIN  44  43  96 VRB6      29.70F FOG
LEWISTONAUBURN CLOUDY    45  43  93 NE12      29.73F
AUGUSTA        RAIN      44  42  93 E9        29.78F FOG
WATERVILLE     CLOUDY    45  39  81 CALM      29.78F
BANGOR         LGT RAIN  43  40  89 SE18G28   29.84F FOG
GREENVILLE       N/A     37  36  96 SE14G26   29.79F
MILLINOCKET    LGT RAIN  40  38  93 E9        29.92F FOG
HOULTON        LGT RAIN  38  36  92 SE8       29.97F FOG
PRESQUE ISLE   CLOUDY    37  32  81 SE10G18   29.98F
FRENCHVILLE    LGT RAIN  35  32  88 SE18G26   29.94F
CARIBOU        LGT RAIN  36  34  92 SE15      29.97F
$$

NHZ002-005-008-009-011-012-014-211000-
NEW HAMPSHIRE

CITY           SKY/WX    TMP DP  RH WIND       PRES   REMARKS
PORTSMOUTH     LGT RAIN  47  46  96 E7        29.60F FOG
ROCHESTER      LGT RAIN  47  45  93 E5        29.62F FOG
NASHUA         RAIN      49  48  96 VRB5      29.58F FOG
MANCHESTER     LGT RAIN  48  46  93 N12       29.55F FOG
CONCORD        RAIN      47  45  93 N10       29.60F FOG
LACONIA        CLOUDY    45  39  81 NE10G17   29.63F
PLYMOUTH       RAIN      45  45 100 SE3       29.65F
BERLIN         CLOUDY    45  39  79 SE7       29.68F
WHITEFIELD     RAIN      46  41  82 E13       29.62F
JAFFREY        RAIN      44  44 100 VRB6      29.57F FOG
KEENE          CLOUDY    46  45  93 N3        29.57S
LEBANON        RAIN      46  43  89 NE8       29.60F FOG
MT WASHINGTON  FRZ RAIN  30  30 100 SE37G46     N/A  VSB 1/16WCI  14
$$

VTZ005-007-008-211000-
VERMONT

CITY           SKY/WX    TMP DP  RH WIND       PRES   REMARKS
ST JOHNSBURY     N/A     47  43  86 MISG      29.58F
MONTPELIER     CLOUDY    44  42  93 S3        29.65R
BURLINGTON     LGT RAIN  49  44  83 E6        29.56F
$$

MAZ007-012-024-CTZ003-RIZ002-NYZ038-NYZ072-211000-
SOUTHERN NEW ENGLAND AND NY

CITY           SKY/WX    TMP DP  RH WIND       PRES   REMARKS
BOSTON         LGT RAIN  47  47 100 SE8       29.58F VSB 1/2
WORCESTER      FOG       49  48  97 E5        29.57R VSB 1/2
NANTUCKET      LGT RAIN  51  50  96 SE14      29.61F VSB 1/4
PROVIDENCE     FOG       52  51  97 SE6       29.56F VSB 1
HARTFORD       LGT RAIN  51  48  89 N5        29.56S
ALBANY         LGT RAIN  51  47  86 CALM      29.56R
NEW YORK CITY  LGT RAIN  55  52  89 CALM      29.56S
$$

ANZ081-ANZ082-ANZ150-NHZ014-MEZ023>029-211000-
COASTAL MARINE OBSERVATIONS

STATION/POSITION TIME  TEMP    WIND        PRES    WAVE
                       AIR SEA DIR/SP/G            HT/PER
                 (UTC) (F)     (DEG/KT/KT) (MB)    (FT/S)
MOUNT DESERT ROC 0900   42     110/ 49/ 57 1008.2F
MATINICUS ROCK   0800   42     120/ 45/ 51 1006.2F
WELLS            0800   46 41  140/  5/  7 1004.3F
ISLE OF SHOALS   0800   46     140/ 25/ 27 1002.2F
CASHES LEDGE BUO 0850   45 40              1004.5F  16/ 9
$$

.............KEY..............
   WCI - WIND CHILL
   TC  - TEMPERATURE IN CELSIUS
   VSB - VISIBILITY IN MILES
   HX  - HEAT INDEX
   FAIR- INDICATES FEW OR NO CLOUDS BELOW 12,000 FT, WITH NO
         SIGNIFICANT WEATHER AND/OR OBSTRUCTIONS TO VISIBILITY.





USA.gov is the U.S. government's official web portal to all federal, state and local government web resources and services.